This is the latest recevied weather packets stored in our database for station/object F5ZQC-13. If no packets are shown the sender has not sent any weather packets the latest 10 day(s).
| Time | Temp. | Humidity | Pressure | Rain* | Wind** | Luminosity | Snow |
|---|---|---|---|---|---|---|---|
| 1778282031 | 15° C | 48% | 1010.2 hPa | 0 mm | - | - | - |
| 1778281869 | 15° C | 49% | 1010.3 hPa | 0 mm | - | - | - |
| 1778281623 | 15° C | 50% | 1010.3 hPa | 0 mm | - | - | - |
| 1778281134 | 15° C | 51% | 1010.3 hPa | 0 mm | - | - | - |
| 1778280921 | 15° C | 51% | 1010.3 hPa | 0 mm | - | - | - |
| 1778280801 | 15° C | 54% | 1010.3 hPa | 0 mm | - | - | - |
| 1778280153 | 15.56° C | 53% | 1010.4 hPa | 0 mm | - | - | - |
| 1778279785 | 15.56° C | 51% | 1010.4 hPa | 0 mm | - | - | - |
| 1778279666 | 15.56° C | 53% | 1010.3 hPa | 0 mm | - | - | - |
| 1778279296 | 15.56° C | 52% | 1010.5 hPa | 0 mm | - | - | - |
| 1778279190 | 15.56° C | 52% | 1010.6 hPa | 0 mm | - | - | - |
| 1778278398 | 15.56° C | 51% | 1010.5 hPa | 0 mm | - | - | - |
| 1778278243 | 15.56° C | 51% | 1010.3 hPa | 0 mm | - | - | - |
| 1778278121 | 15.56° C | 51% | 1010.5 hPa | 0 mm | - | - | - |
| 1778277512 | 15.56° C | 51% | 1010.5 hPa | 0 mm | - | - | - |
| 1778277245 | 15.56° C | 51% | 1010.5 hPa | 0 mm | - | - | - |
| 1778277001 | 15.56° C | 50% | 1010.2 hPa | 0 mm | - | - | - |
| 1778276756 | 15.56° C | 49% | 1010.4 hPa | 0 mm | - | - | - |
| 1778276203 | 16.11° C | 50% | 1010.4 hPa | 0 mm | - | - | - |
| 1778276019 | 16.11° C | 50% | 1010.4 hPa | 0 mm | - | - | - |
| 1778275842 | 16.11° C | 49% | 1010.5 hPa | 0 mm | - | - | - |
| 1778275723 | 16.11° C | 49% | 1010.5 hPa | 0 mm | - | - | - |
| 1778275592 | 16.11° C | 49% | 1010.5 hPa | 0 mm | - | - | - |
| 1778275470 | 16.11° C | 49% | 1010.6 hPa | 0 mm | - | - | - |
| 1778275123 | 16.11° C | 47% | 1010.5 hPa | 0 mm | - | - | - |
* Rain since midnight (hover to see other rain measurements)
** Current wind speed in m/s (hover to see current wind gust speed)